DELTA 1 DEB, 10865

Orbit data source: Space-Track

DELTA 1 DEB, 10865 is space debris in SSO originally from a launch on Thu, 29 Jul 1976 UTC launched from the Air Force Western Test Range (AFWTR). Debris objects in space refer to the collection of defunct objects orbiting the Earth. Examples of debris include non-operational satellites, rocket bodies, and fragments generated from explosions, collisions, or faulty payload assembly.

Loading next visibility...
Identifier
10865, 1976-077CT
Orbit
SSO
Country
Flag of USUS
Related business
Manufacturer
Unknown
Mission
Spacecraft
Bus & Motor
Unknown
Mass
Unknown
Launch date (UTC)
1976-07-29 (50 years ago)
Launch vehicle
Unknown
Launch site
Air Force Western Test Range (AFWTR)
Object type
Payload
Rocket body
Debris
Shape & HBR
Unknown shape, 0.1 m
Radar Cross Section
Medium (>0.1 m² and <1 m²)

Expand to show TLE details & history
Last TLE update: 8 hours ago

TLE from 8 hours ago
0 DELTA 1 DEB
1 10865U 76077CT  26255.83379847 -.00000042  00000-0  23694-4 0  9991
2 10865 102.4027 200.3075 0111881 357.9764  25.5377 12.20361651233572
Epoch: 2026-09-12T20:00Z
TLE epoch observation values (Epoch: 2026-09-12T20:00:40.187Z)
Latitude
23.50014°
Longitude
-97.15725°
Altitude
1,513.177 km
Speed
7.146 km/s
True Right ascension
12h 59m 23s
True Declination
23° 23' 12"
Sunlit
Object was in daylight at epoch
Visualization orbit readout
Latitude
Unknown
Longitude
Unknown
Altitude
Unknown
Speed
Unknown
Apparent Right ascension
Unknown
Apparent Declination
Unknown
Sunlit
N/A
Visualization observer readout
Local Sidereal Time
20:48:55
Azimuth
Unknown
Elevation
Unknown
Doppler factor
Unknown
Orbital elements
Apogee altitude
1,677.723 km
Perigee altitude
1,499.458 km
Semi-major axis
7,966.728 km
Eccentricity
0.01119
Inclination
102.4027°
RAAN
200.3075°
Arg. of periapsis
357.9764°
True anomaly
26.09745°
Mean anomaly
25.5377°
Eccentric anomaly
25.81687°
Mean motion
3.05227 °/min
Orbital period
117.94 mins
BSTAR
0.000023694
Loading maneuver chart data...
Computing Atmospheric mass density...
Loading historical data...
Loading historical data...
Loading historical data...
Loading historical data...
Loading historical data...
Loading historical data...
Loading historical data...

Documentation

Showing up to 5 results
|